Weather History for Lakeview AWS, OR

Change the Weather History Date:

Sunday, October 6, 2013

  Actual Average Record
Temperature  
Mean Temperature 48 °F -  
Max Temperature 75 °F 68 °F 87 °F (1980)
Min Temperature 21 °F 37 °F 18 °F (1941)
Degree Days  
Heating Degree Days 17    
Moisture  
Dew Point 21 °F    
Average Humidity 45    
Maximum Humidity 93    
Minimum Humidity 12    
Precipitation  
Precipitation 0.00 in - - ()
Sea Level Pressure  
Sea Level Pressure 30.23 in    
Wind  
Wind Speed 8 mph (SSW)    
Max Wind Speed 16 mph    
Max Gust Speed 21 mph    
Visibility 10 miles    
Events      
Averages and records for this station are not official NWS values.
T = Trace of Precipitation, MM = Missing Value Source: NWS Daily Summary

Daily Weather History Graph

Daily Weather History Graph

Search for Another Location

Airport:

Trip Planner

Search our weather history database for the weather conditions in past years. The results will help you decide how hot, cold, wet, or windy it might be!

Date:

Astronomy

Oct. 06, 2013 Rise Set
Actual Time 7:04 AM PDT 6:34 PM PDT
Civil Twilight 6:36 AM PDT 7:01 PM PDT
Nautical Twilight 6:04 AM PDT 7:34 PM PDT
Astronomical Twilight 5:31 AM PDT 8:06 PM PDT
Moon 8:57 AM PDT (10/6) 7:34 PM PDT (10/6)
Length of Visible Light 12h 25m
Length of Day
11h 29m
Waxing Crescent, 4% of the Moon is Illuminated
Oct 6
Waxing Crescent
Oct 11
First Quarter
Oct 18
Full
Oct 26
Last Quarter
Nov 3
New

Hourly Weather History & Observations

Time (PDT) Temp. Windchill Dew Point Humidity Pressure Visibility Wind Dir Wind Speed Gust Speed Precip Events Conditions
12:15 AM 33.8 °F 28.6 °F 24.8 °F 70% 30.33 in 10.0 mi NNW 5.8 mph - N/A   Clear
12:35 AM 30.2 °F 24.3 °F 21.2 °F 69% 30.33 in 10.0 mi NNW 5.8 mph - N/A   Clear
12:55 AM 30.2 °F 24.3 °F 21.2 °F 69% 30.33 in 10.0 mi NNW 5.8 mph - N/A   Clear
1:15 AM 28.4 °F 21.2 °F 21.2 °F 74% 30.33 in 10.0 mi North 6.9 mph - N/A   Clear
1:35 AM 28.4 °F 19.1 °F 21.2 °F 74% 30.32 in 10.0 mi NNW 10.4 mph - N/A   Clear
1:55 AM 30.2 °F 21.3 °F 23.0 °F 75% 30.32 in 10.0 mi NNW 10.4 mph - N/A   Clear
2:15 AM 30.2 °F 21.9 °F 23.0 °F 75% 30.32 in 10.0 mi NNW 9.2 mph - N/A   Clear
2:35 AM 30.2 °F 22.6 °F 21.2 °F 69% 30.31 in 10.0 mi NNW 8.1 mph - N/A   Clear
2:55 AM 28.4 °F 20.4 °F 21.2 °F 74% 30.31 in 10.0 mi NNW 8.1 mph - N/A   Clear
3:15 AM 26.6 °F 19.1 °F 21.2 °F 80% 30.30 in 10.0 mi North 6.9 mph - N/A   Clear
3:35 AM 26.6 °F 19.1 °F 21.2 °F 80% 30.30 in 10.0 mi NW 6.9 mph - N/A   Clear
3:55 AM 26.6 °F 19.1 °F 21.2 °F 80% 30.29 in 10.0 mi NNW 6.9 mph - N/A   Clear
4:15 AM 24.8 °F 17.9 °F 19.4 °F 80% 30.29 in 10.0 mi NNW 5.8 mph - N/A   Clear
4:35 AM 24.8 °F 16.1 °F 19.4 °F 80% 30.28 in 10.0 mi NNW 8.1 mph - N/A   Clear
4:55 AM 24.8 °F 16.9 °F 19.4 °F 80% 30.28 in 10.0 mi NNW 6.9 mph - N/A   Clear
5:15 AM 26.6 °F 18.2 °F 19.4 °F 74% 30.28 in 10.0 mi NNW 8.1 mph - N/A   Clear
5:35 AM 26.6 °F 18.2 °F 19.4 °F 74% 30.27 in 10.0 mi NNW 8.1 mph - N/A   Clear
5:55 AM 24.8 °F 16.1 °F 19.4 °F 80% 30.27 in 10.0 mi NW 8.1 mph - N/A   Clear
6:15 AM 24.8 °F 19.1 °F 19.4 °F 80% 30.27 in 10.0 mi NW 4.6 mph - N/A   Clear
6:35 AM 21.2 °F - 17.6 °F 86% 30.27 in 10.0 mi Calm Calm - N/A   Clear
6:55 AM 21.2 °F 13.6 °F 19.4 °F 93% 30.27 in 10.0 mi North 5.8 mph - N/A   Clear
7:15 AM 21.2 °F 13.6 °F 17.6 °F 86% 30.27 in 10.0 mi NW 5.8 mph - N/A   Clear
7:35 AM 21.2 °F 16.4 °F 17.6 °F 86% 30.27 in 10.0 mi NW 3.5 mph - N/A   Clear
7:55 AM 28.4 °F - 21.2 °F 74% 30.27 in 10.0 mi Calm Calm - N/A   Clear
8:15 AM 33.8 °F - 24.8 °F 70% 30.28 in 10.0 mi Calm Calm - N/A   Clear
8:35 AM 35.6 °F 31.7 °F 26.6 °F 70% 30.29 in 7.0 mi ENE 4.6 mph - N/A   Clear
8:55 AM 35.6 °F - 26.6 °F 70% 30.29 in 7.0 mi Calm Calm - N/A   Clear
9:15 AM 42.8 °F - 28.4 °F 57% 30.29 in 9.0 mi Calm Calm - N/A   Clear
9:35 AM 46.4 °F 45.2 °F 26.6 °F 46% 30.29 in 10.0 mi SW 3.5 mph - N/A   Clear
9:55 AM 48.2 °F - 26.6 °F 43% 30.29 in 10.0 mi Calm Calm - N/A   Clear
10:15 AM 50.0 °F - 28.4 °F 43% 30.28 in 10.0 mi Calm Calm - N/A   Clear
10:35 AM 53.6 °F - 24.8 °F 33% 30.28 in 10.0 mi Calm Calm - N/A   Clear
10:55 AM 55.4 °F - 24.8 °F 31% 30.27 in 10.0 mi SE 4.6 mph - N/A   Clear
11:15 AM 60.8 °F - 23.0 °F 23% 30.26 in 10.0 mi South 5.8 mph - N/A   Clear
11:35 AM 62.6 °F - 21.2 °F 20% 30.26 in 10.0 mi SSE 9.2 mph - N/A   Clear
11:55 AM 64.4 °F - 19.4 °F 18% 30.25 in 10.0 mi South 11.5 mph - N/A   Clear
12:15 PM 64.4 °F - 23.0 °F 21% 30.24 in 10.0 mi South 6.9 mph - N/A   Clear
12:35 PM 68.0 °F - 24.8 °F 20% 30.24 in 10.0 mi South 11.5 mph - N/A   Clear
12:55 PM 69.8 °F - 23.0 °F 17% 30.23 in 10.0 mi South 10.4 mph - N/A   Clear
1:15 PM 69.8 °F - 23.0 °F 17% 30.21 in 10.0 mi South 6.9 mph 16.1 mph N/A   Clear
1:35 PM 71.6 °F - 23.0 °F 16% 30.20 in 10.0 mi South 13.8 mph - N/A   Clear
1:55 PM 71.6 °F - 24.8 °F 17% 30.19 in 10.0 mi South 11.5 mph 16.1 mph N/A   Clear
2:15 PM 73.4 °F - 24.8 °F 16% 30.18 in 10.0 mi SSW 10.4 mph 19.6 mph N/A   Clear
2:35 PM 73.4 °F - 23.0 °F 15% 30.17 in 10.0 mi South 13.8 mph - N/A   Clear
2:55 PM 73.4 °F - 23.0 °F 15% 30.16 in 10.0 mi SSW 11.5 mph - N/A   Clear
3:15 PM 75.2 °F - 21.2 °F 13% 30.16 in 10.0 mi South 12.7 mph 19.6 mph N/A   Clear
3:35 PM 73.4 °F - 21.2 °F 14% 30.16 in 10.0 mi South 11.5 mph - N/A   Clear
3:55 PM 75.2 °F - 21.2 °F 13% 30.15 in 9.0 mi SSW 13.8 mph 18.4 mph N/A   Clear
4:15 PM 75.2 °F - 19.4 °F 12% 30.14 in 10.0 mi South 15.0 mph 19.6 mph N/A   Clear
4:35 PM 73.4 °F - 19.4 °F 13% 30.14 in 10.0 mi SSW 13.8 mph 20.7 mph N/A   Clear
4:55 PM 73.4 °F - 19.4 °F 13% 30.14 in 10.0 mi SW 16.1 mph - N/A   Clear
5:15 PM 71.6 °F - 17.6 °F 13% 30.14 in 10.0 mi SSW 13.8 mph - N/A   Clear
5:35 PM 71.6 °F - 15.8 °F 12% 30.13 in 10.0 mi SSW 10.4 mph - N/A   Clear
5:55 PM 68.0 °F - 17.6 °F 15% 30.13 in 10.0 mi WSW 9.2 mph - N/A   Clear
6:15 PM 64.4 °F - 15.8 °F 15% 30.13 in 10.0 mi WSW 9.2 mph - N/A   Clear
6:35 PM 60.8 °F - 17.6 °F 19% 30.13 in 10.0 mi WSW 10.4 mph - N/A   Clear
6:55 PM 57.2 °F - 19.4 °F 23% 30.13 in 10.0 mi SW 9.2 mph - N/A   Clear
7:15 PM 53.6 °F - 19.4 °F 26% 30.14 in 10.0 mi SSW 6.9 mph - N/A   Clear
7:35 PM 46.4 °F 42.9 °F 24.8 °F 43% 30.14 in 10.0 mi ESE 6.9 mph - N/A   Clear
7:55 PM 50.0 °F - 21.2 °F 32% 30.15 in 10.0 mi ESE 5.8 mph - N/A   Clear
8:15 PM 46.4 °F 41.1 °F 24.8 °F 43% 30.15 in 10.0 mi SSE 11.5 mph - N/A   Clear
8:35 PM 50.0 °F - 23.0 °F 35% 30.15 in 10.0 mi South 9.2 mph - N/A   Clear
8:55 PM 55.4 °F - 17.6 °F 23% 30.15 in 10.0 mi South 15.0 mph - N/A   Clear
9:15 PM 53.6 °F - 17.6 °F 24% 30.16 in 10.0 mi South 12.7 mph - N/A   Clear
9:35 PM 51.8 °F - 19.4 °F 28% 30.16 in 10.0 mi South 12.7 mph - N/A   Clear
9:55 PM 48.2 °F - 17.6 °F 30% 30.16 in 10.0 mi SSE 13.8 mph - N/A   Clear
10:15 PM 48.2 °F - 19.4 °F 32% 30.16 in 10.0 mi SSE 11.5 mph - N/A   Clear
10:35 PM 48.2 °F - 19.4 °F 32% 30.16 in 10.0 mi SSE 13.8 mph - N/A   Clear
10:55 PM 46.4 °F 40.4 °F 19.4 °F 34% 30.16 in 10.0 mi SSE 13.8 mph - N/A   Clear
11:15 PM 44.6 °F 38.8 °F 19.4 °F 37% 30.16 in 10.0 mi SSE 11.5 mph - N/A   Clear
11:35 PM 42.8 °F 36.6 °F 21.2 °F 42% 30.15 in 10.0 mi South 11.5 mph - N/A   Clear
11:55 PM 41.0 °F 35.2 °F 19.4 °F 42% 30.15 in 10.0 mi SSE 9.2 mph - N/A   Clear